Location: Olsztyn
(53.7767°N, 20.4765°E)
Time: 15:26:24
(UTC+02:00)

A-11 Canister half - Pass Details

Date: 31 January 2022
Orbit: 1513 x 1686 km, 47.2° (Epoch: 25 May)

Event Time Altitude Azimuth Distance (km) Brightness Sun altitude
Rises 20:08:05 0° 281° (W) 4,712 12.6 -33.7°
Reaches altitude 10° 20:11:24 10° 274° (W) 3,710 11.8 -34.2°
Maximum altitude 20:19:43 39° 210° (SSW) 2,143 9.7 -35.4°
Enters shadow 20:20:54 37° 194° (SSW) 2,183 9.6 -35.5°
Drops below altitude 10° 20:27:58 10° 146° (SSE) 3,669 - -36.5°
Sets 20:31:15 0° 139° (SE) 4,655 - -36.9°
